Location: Arbon
(43.0005°N, 0.7472°E)
Time: 22:50:13
(UTC+00:00)

Explorer 7 - Pass Details

Date: 29 November 2020
Orbit: 484 x 678 km, 50.3° (Epoch: 26 January)

Event Time Altitude Azimuth Distance (km) Brightness Sun altitude
Rises 02:52:39 0° 258° (WSW) 2,914 - -45.7°
Reaches altitude 10° 02:55:06 10° 264° (W) 1,977 - -45.3°
Maximum altitude 02:59:29 48° 339° (NNW) 778 - -44.5°
Drops below altitude 10° 03:03:37 10° 55° (NE) 1,861 - -43.8°
Exits shadow 03:05:23 - 60° (ENE) 2,536 10.9 -43.4°
Sets 03:05:52 0° 61° (ENE) 2,724 11.1 -43.4°
